Weather Roundup
Issued by NWS Springfield, MO

Home | Current Version | Previous Version | Text Only | Print | Product List | Glossary On
Versions: 1 2 3 4 5 6 7 8 9 10 11 12 13 14 15 16 17 18 19 20 21 22 23 24 25 26 27 28 29 30 31 32 33 34 35 36 37 38 39 40 41 42 43 44 45 46 47 48 49 50
000
NZUS99 KSGF 230607
HRRSGF

HOURLY WEATHER
NATIONAL WEATHER SERVICE SPRINGFIELD MO
1200 AM CST TUE JAN 23 2018

......SGF CWA......

CITY           SKY/WX    TMP DP  RH WIND       PRES   REMARKS
SPRINGFIELD    CLOUDY    33  27  78 W15G28    29.84R WCI  23
6HR MIN TEMP:  33; 6HR MAX TEMP:  36; 6HR PCP: TRACE;

JOPLIN         CLOUDY    34  27  75 NW16G31   29.93R WCI  24
6HR MIN TEMP:  34; 6HR MAX TEMP:  37; 6HR PCP: TRACE;

WEST PLAINS    CLOUDY    36  28  73 W16G28    29.79R WCI  26
6HR MIN TEMP:  36; 6HR MAX TEMP:  43; 6HR PCP: TRACE;

ROLLA          CLOUDY    33  29  85 W20G33    29.70R WCI  21
6HR MIN TEMP:  33; 6HR MAX TEMP:  39; 6HR PCP: TRACE;

OSAGE BEACH    CLOUDY    34  29  82 W13G24    29.77R WCI  25

......SURROUNDING SGF CWA......

CITY           SKY/WX    TMP DP  RH WIND       PRES   REMARKS
CHANUTE        NOT AVBL
PARSONS        CLOUDY    36  29  75 NW9       29.97R WCI  29
COFFEYVILLE    CLOUDY    39  27  62 NW18G28   29.98R WCI  30
EMPORIA        PTCLDY    30  23  75 NW15G28   29.95R WCI  19
GROVE OK       CLOUDY    39  32  75 NW8       29.98R WCI  34
ROGERS AR      CLOUDY    37  27  67 W18G30    29.92R WCI  27
SILOAM SPRINGS CLOUDY    39  28  64 W15       29.95R WCI  31
HARRISON AR    CLOUDY    37  26  64 NW16G29   29.85R WCI  28
NEAR YELLVILLE CLOUDY    40  26  57 W20G31    29.87R WCI  30

......KANSAS AND MISSOURI......

CITY           SKY/WX    TMP DP  RH WIND       PRES   REMARKS
KANSAS CTY INT CLOUDY    31  26  82 NW17G26   29.83R WCI  19
DOWNTOWN KC    CLOUDY    33  25  72 NW18G29   29.84R WCI  22
COLUMBIA       CLOUDY    34  32  92 W20G28    29.67R WCI  23
SEDALIA        FLURRIES  34  32  92 W23G30    29.76R WCI  22
ST JOSEPH      CLOUDY    32  28  85 NW21G31   29.85R WCI  20
ST LOUIS       FLURRIES  36  30  79 W22G28    29.64R WCI  25
SPIRIT OF STL  FLURRIES  36  30  79 SW17G28   29.64R WCI  26
KIRKSVILLE     CLOUDY    35  34  96 NW16G23   29.62R WCI  25
WICHITA        CLEAR     32  23  69 NW15      30.02R WCI  22
TOPEKA         CLOUDY    31  26  82 NW17G32   29.93R WCI  19
OLATHE         CLOUDY    29  25  85 NW18G28   29.85R WCI  16

......TENNESSEE......

CITY           SKY/WX    TMP DP  RH WIND       PRES   REMARKS
MEMPHIS        MOCLDY    47  30  51 SW13      29.88S
NASHVILLE      FAIR      51  28  41 W14G24    29.79R

......ARKANSAS.......

CITY           SKY/WX    TMP DP  RH WIND       PRES   REMARKS
FAYETTEVILLE   CLOUDY    39  29  67 NW16G28   29.93R WCI  30
FT SMITH       CLEAR     41  26  55 W16       29.98R
LITTLE ROCK    CLEAR     43  28  55 W10       29.93R

......OKLAHOMA.......

CITY           SKY/WX    TMP DP  RH WIND       PRES   REMARKS
TULSA          CLEAR     40  21  46 NW14      30.02R WCI  32
PONCA CITY     CLEAR     34  20  56 NW7       30.04R WCI  28
MCALESTER      CLEAR     42  21  43 W10       30.06R
OKLAHOMA CITY  CLEAR     31  16  54 W7        30.10R WCI  24

......IOWA............

CITY           SKY/WX    TMP DP  RH WIND       PRES   REMARKS
DES MOINES     FLURRIES  30  26  85 N17G30    29.70R WCI  18
QUAD CITIES    CLOUDY    33  31  92 W5        29.53R WCI  29

......ILLINOIS........

CITY           SKY/WX    TMP DP  RH WIND       PRES   REMARKS
QUINCY         MIX PCPN  33  32  96 W12       29.57R WCI  24
CHICAGO        CLOUDY    39  31  72 SW13      29.50R WCI  31




USA.gov is the U.S. government's official web portal to all federal, state and local government web resources and services.